TimeEDT,TemperatureF,Dew PointF,Humidity,Sea Level PressureIn,VisibilityMPH,Wind Direction,Wind SpeedMPH,Gust SpeedMPH,PrecipitationIn,Events,Conditions,WindDirDegrees,DateUTC
12:53 AM,63.0,60.1,90,29.91,7.0,Calm,Calm,-,N/A,,Clear,0,2013-06-18 04:53:00
1:53 AM,62.1,60.1,93,29.90,6.0,Calm,Calm,-,N/A,,Clear,0,2013-06-18 05:53:00
2:53 AM,62.1,59.0,90,29.89,6.0,Calm,Calm,-,N/A,,Clear,0,2013-06-18 06:53:00
3:53 AM,62.1,59.0,90,29.88,7.0,Calm,Calm,-,N/A,,Clear,0,2013-06-18 07:53:00
4:53 AM,61.0,59.0,93,29.88,8.0,Calm,Calm,-,N/A,,Clear,0,2013-06-18 08:53:00
5:53 AM,60.1,59.0,96,29.90,4.0,Calm,Calm,-,N/A,,Clear,0,2013-06-18 09:53:00
6:53 AM,62.1,60.1,93,29.91,5.0,Calm,Calm,-,N/A,,Clear,0,2013-06-18 10:53:00
7:53 AM,64.9,61.0,87,29.91,8.0,NNW,3.5,-,N/A,,Clear,340,2013-06-18 11:53:00
8:53 AM,68.0,62.1,81,29.91,9.0,NNW,4.6,-,N/A,,Clear,330,2013-06-18 12:53:00
9:53 AM,71.1,62.1,73,29.90,10.0,Calm,Calm,-,N/A,,Clear,0,2013-06-18 13:53:00
10:53 AM,73.9,61.0,64,29.88,10.0,Calm,Calm,-,N/A,,Clear,0,2013-06-18 14:53:00
11:53 AM,77.0,63.0,62,29.87,10.0,Calm,Calm,-,N/A,,Clear,0,2013-06-18 15:53:00
12:53 PM,77.0,64.0,64,29.87,10.0,NNW,6.9,-,N/A,,Clear,340,2013-06-18 16:53:00
1:53 PM,77.0,62.1,60,29.86,10.0,NE,5.8,-,N/A,,Clear,40,2013-06-18 17:53:00
2:53 PM,79.0,63.0,58,29.84,10.0,NNW,6.9,-,N/A,,Clear,340,2013-06-18 18:53:00
3:53 PM,79.0,62.1,56,29.83,10.0,North,4.6,-,N/A,,Clear,360,2013-06-18 19:53:00
4:53 PM,78.1,64.0,62,29.83,10.0,North,5.8,-,N/A,,Mostly Cloudy,360,2013-06-18 20:53:00
5:53 PM,78.1,61.0,56,29.82,10.0,North,9.2,-,N/A,,Clear,10,2013-06-18 21:53:00
6:53 PM,75.0,62.1,64,29.83,10.0,North,9.2,-,N/A,,Partly Cloudy,10,2013-06-18 22:53:00
8:53 PM,71.1,57.9,63,29.88,10.0,NNE,12.7,-,N/A,,Overcast,20,2013-06-19 00:53:00
11:53 PM,64.0,55.0,73,29.94,10.0,North,5.8,-,N/A,,Clear,360,2013-06-19 03:53:00